Wind_Speed
55 60 66 66 72 74 77 80 83 87 90 94 81 71 68 70 68 67 63 62 63 63 66 65 65 63 65 71 77 81 94 107 103 94 86 82 76 70 65 60 58 54 50 45 44 40 38 34 32 29 31 29 30 31
61 66 69 71 73 74 77 82 86 90 95 86 76 74 76 70 66 61 61 60 60 58 65 67 67 67 65 69 74 77 87 99 108 96 94 93 85 77 69 63 61 58 49 47 45 45 40 36 31 34 31 31 31 32
66 69 69 69 71 74 79 84 89 92 89 79 77 80 75 68 62 57 56 54 53 54 58 61 63 63 66 67 71 75 82 94 105 105 97 91 81 76 67 64 62 60 55 50 46 38 39 37 36 32 33 32 31 30
62 64 65 67 70 76 81 85 92 93 79 79 79 74 68 63 56 50 47 44 44 45 50 53 53 57 61 66 68 74 81 86 98 106 102 96 89 84 76 68 68 66 61 54 49 40 40 42 35 34 33 32 28 28
62 62 64 67 72 78 83 90 95 78 79 80 74 67 60 54 49 44 40 37 36 37 43 42 44 49 52 61 66 72 78 83 93 108 106 101 93 77 57 78 71 65 63 58 52 48 44 39 39 33 31 29 28 28
56 58 62 69 74 81 86 91 81 79 82 73 66 58 53 47 41 36 33 30 26 27 32 33 37 42 49 56 62 70 74 80 87 103 108 103 98 90 83 82 78 73 70 66 48 44 44 47 39 33 31 29 27 27
52 58 64 71 78 84 89 80 78 80 72 66 58 51 45 39 34 31 28 23 19 20 24 28 33 38 43 50 56 62 66 75 82 92 105 108 105 102 98 87 82 82 72 64 54 54 52 49 40 37 34 31 28 28
54 59 68 75 82 86 80 75 77 70 64 57 50 43 38 33 29 24 20 16 15 16 19 22 28 35 41 46 49 52 58 67 76 84 103 110 108 102 95 92 85 70 71 68 61 56 51 51 44 37 36 33 28 27
55 65 72 78 84 77 71 72 67 60 55 47 40 36 32 27 21 16 12 10 10 12 15 18 22 26 32 39 46 50 54 58 73 81 98 109 109 106 98 95 86 79 73 72 60 53 50 52 45 42 39 35 29 26
61 68 74 80 72 67 66 60 53 50 44 38 33 29 24 20 15 11 7 4 6 7 10 12 18 23 28 36 40 47 54 59 60 75 93 104 105 104 98 92 86 81 76 68 62 58 55 52 45 44 42 37 33 31
64 70 76 70 63 61 53 48 43 41 40 35 29 24 18 15 11 9 5 1 2 5 8 12 15 19 25 32 36 44 54 60 62 70 84 99 102 101 96 91 88 83 74 67 62 59 57 53 49 47 46 41 37 33
66 71 67 57 56 54 44 37 37 39 37 31 25 19 16 12 12 13 10 8 8 9 10 13 16 19 24 30 38 42 50 57 62 63 78 96 101 102 97 94 90 83 77 71 64 60 58 55 51 49 47 44 39 34
66 59 51 51 51 43 31 30 32 33 33 27 21 21 20 17 16 15 14 13 14 15 15 15 17 19 24 29 36 45 50 55 58 62 78 94 95 96 97 95 90 83 78 70 66 62 60 57 52 51 50 46 39 36
54 46 45 46 40 33 27 27 28 30 30 28 23 21 22 21 21 22 19 16 15 15 15 15 16 19 24 30 36 42 47 51 56 63 77 85 83 94 90 92 88 83 78 72 67 66 64 59 55 53 51 48 44 43
40 40 37 34 35 27 27 29 32 32 29 24 20 17 16 19 20 21 21 21 19 17 16 15 17 20 26 31 37 41 46 50 53 63 69 82 81 90 89 90 87 82 78 74 68 68 68 63 59 56 54 52 51 47
35 34 31 37 29 28 29 31 32 30 26 22 18 15 14 14 13 14 15 16 17 17 15 17 18 22 26 30 35 37 41 47 52 61 70 74 80 85 87 87 86 83 79 70 70 70 67 67 64 59 57 56 54 51
32 32 34 29 26 26 27 29 27 24 22 20 19 18 16 13 11 10 10 8 9 10 11 13 14 18 23 26 28 28 32 43 56 66 74 77 85 86 89 88 87 84 82 79 74 69 67 68 69 66 61 59 56 54
28 28 24 25 27 37 39 36 31 28 27 27 26 23 22 21 18 14 9 7 7 6 6 7 12 16 19 23 29 33 37 43 52 64 77 84 88 91 90 89 88 87 85 82 78 74 71 69 70 70 67 64 60 59
23 28 34 35 38 41 41 42 50 58 60 53 45 40 34 31 28 25 21 17 13 9 5 7 8 10 14 18 21 25 30 35 44 55 66 77 84 89 91 90 90 89 87 85 81 78 73 71 69 70 70 69 66 63
16 15 18 23 24 29 31 35 36 40 42 44 46 51 58 55 49 45 41 36 29 22 18 13 8 5 8 13 18 22 27 33 39 43 53 66 77 83 87 89 88 87 86 86 84 80 77 75 73 70 69 70 71 68
12 14 14 20 20 23 26 27 33 40 42 45 45 48 50 52 56 60 64 65 58 49 39 30 23 17 11 7 4 12 20 26 30 36 45 53 63 73 81 88 89 87 85 84 83 81 80 79 76 74 73 71 70 71
10 11 12 17 20 20 24 31 37 39 43 46 47 48 50 51 52 53 53 54 55 57 56 55 47 36 27 19 13 6 6 14 21 27 31 40 49 58 70 78 86 90 88 87 85 83 81 79 77 75 74 73 72 70
7 6 8 13 16 19 22 26 27 31 32 33 37 39 43 46 47 47 50 52 52 52 50 49 49 48 44 34 27 18 11 5 8 15 20 25 30 40 53 66 77 83 88 90 89 87 84 81 80 78 76 75 75 73
9 4 6 7 11 12 14 20 21 20 22 25 28 27 31 38 41 42 42 42 45 43 45 45 46 46 45 42 38 33 26 18 9 2 10 17 21 27 35 46 59 70 81 86 89 89 86 84 83 82 80 78 77 76
12 9 5 3 5 8 5 8 16 16 17 20 23 25 23 27 28 27 31 37 35 32 36 39 39 38 39 38 41 41 38 35 28 18 10 5 9 14 21 28 36 46 57 67 75 81 85 86 86 85 83 81 80 78
11 9 12 9 7 4 2 3 3 8 12 12 16 19 20 21 20 21 27 28 30 30 27 33 36 30 30 29 25 27 32 36 36 33 29 23 16 8 1 10 18 26 35 44 54 65 73 75 78 79 79 80 80 79
13 11 9 9 8 9 11 9 8 11 7 3 4 14 14 12 16 21 22 20 24 24 26 26 28 24 21 20 20 22 26 26 25 28 27 28 29 27 22 15 6 6 15 24 33 44 55 64 70 74 76 77 77 77
16 15 12 12 16 16 14 11 11 12 12 13 7 8 13 16 14 10 6 12 16 20 18 17 17 16 16 13 12 13 13 15 17 16 19 21 21 20 21 21 20 14 12 7 15 25 33 44 55 65 71 73 74 75
22 22 21 19 18 18 19 20 20 21 22 23 24 21 18 17 18 17 11 9 13 19 18 17 15 15 11 13 10 6 8 7 6 8 9 9 8 12 14 14 15 16 10 13 13 13 18 28 37 45 52 59 64 68
24 23 24 25 24 24 24 25 26 25 24 25 26 26 26 25 26 24 25 24 22 23 24 23 25 25 24 26 27 25 19 18 20 19 18 17 14 18 19 17 16 16 16 19 21 21 20 21 24 30 36 42 48 52
29 29 30 31 31 33 34 35 36 37 38 37 35 34 35 37 36 35 34 34 33 32 32 33 32 31 31 32 31 30 33 33 32 31 31 30 29 28 28 28 30 32 34 33 32 32 31 32 34 36 36 38 40 44
25 26 27 31 32 33 35 37 37 34 33 33 31 30 29 30 28 24 21 21 21 23 24 24 23 24 25 25 27 30 33 34 37 38 40 39 38 34 38 40 40 42 43 46 49 51 52 51 50 50 49 49 51 52
26 20 15 13 15 15 14 17 18 18 20 21 22 22 22 20 19 20 20 18 16 15 12 10 9 10 9 9 7 6 7 8 8 12 16 17 18 19 20 22 24 26 29 31 35 41 50 62 69 69 68 65 61 61
Wind_Direction
293 294 296 299 302 304 306 308 311 311 314 315 313 311 308 305 299 294 286 277 269 260 257 251 246 241 231 227 225 225 222 219 220 219 217 220 221 221 216 217 221 221 220 216 215 215 223 221 225 229 230 226 230 233
293 295 298 301 304 306 308 311 312 315 315 314 312 309 309 304 298 294 286 277 268 259 252 251 248 240 235 227 223 221 221 217 218 216 215 216 217 218 216 215 218 223 221 221 217 217 219 223 223 227 234 232 230 230
295 297 302 303 306 308 310 312 315 316 315 313 313 311 308 303 298 291 283 277 269 262 253 250 247 240 234 229 223 219 219 215 214 213 212 214 217 221 221 218 218 220 222 223 222 216 223 224 224 226 238 238 236 232
299 303 304 306 309 310 312 315 316 317 315 315 314 311 308 305 301 296 289 279 267 258 251 248 243 238 232 229 223 219 217 215 212 211 210 211 211 215 216 214 216 216 219 221 221 220 224 228 223 227 239 243 239 236
303 305 307 309 310 311 314 316 318 316 315 316 314 311 311 308 305 301 292 282 270 258 249 246 238 233 232 228 224 220 217 214 210 209 208 207 209 208 229 216 218 214 218 221 217 220 225 232 228 227 240 246 246 234
303 306 310 310 312 314 315 318 317 317 319 316 315 315 315 313 308 302 296 282 269 255 247 240 233 230 228 225 222 221 217 214 210 208 207 204 206 197 204 213 210 212 214 220 213 219 226 232 225 226 236 241 243 239
310 310 310 315 315 316 317 318 318 319 318 319 319 318 318 314 310 304 293 282 267 251 241 233 226 222 221 221 221 220 217 214 210 207 205 204 205 204 210 214 213 212 214 218 214 220 226 231 227 228 234 237 238 240
311 312 316 315 316 319 319 320 321 321 322 322 321 322 320 316 313 303 292 284 270 251 235 227 223 219 216 215 212 212 213 212 211 205 204 202 203 205 208 212 214 212 209 216 216 218 223 229 227 226 233 235 235 238
313 316 315 316 318 319 321 323 325 327 327 325 326 326 324 319 318 312 301 286 261 240 230 222 218 217 212 210 210 206 203 206 210 204 203 202 202 203 205 211 212 211 212 214 214 217 222 227 223 223 229 234 234 237
317 314 316 320 321 321 325 329 333 335 334 334 335 333 329 331 332 333 315 289 249 229 218 204 204 206 205 204 203 202 198 200 205 204 203 201 201 203 206 209 211 212 212 211 210 214 219 224 223 220 226 229 231 234
314 317 318 321 322 326 331 335 337 344 347 344 341 342 346 354 7 22 21 55 151 162 171 177 177 187 191 194 195 196 195 195 198 202 201 199 199 201 204 208 211 213 213 211 208 212 218 220 222 219 224 228 229 233
316 318 323 324 328 333 337 340 350 356 353 350 354 359 13 26 47 51 58 76 102 126 141 152 160 168 179 180 180 189 192 194 192 192 198 197 198 200 202 207 210 212 213 211 208 211 217 220 221 221 223 227 229 231
318 323 325 330 332 337 334 344 355 360 3 1 15 26 33 43 56 59 70 85 100 108 121 134 146 156 164 174 181 185 187 187 185 189 193 197 198 198 203 206 209 211 213 212 209 212 217 221 221 223 223 226 230 231
323 326 333 334 337 337 336 344 350 354 359 5 16 28 41 48 59 67 72 81 95 112 121 130 141 155 165 172 178 181 181 182 185 189 190 194 198 200 204 206 209 212 213 213 211 212 217 221 222 224 224 224 228 231
328 336 340 343 343 343 344 344 344 347 350 359 12 26 40 48 54 63 75 83 89 100 115 124 138 152 158 166 170 175 178 181 184 188 189 195 197 203 205 207 210 212 215 214 213 213 217 220 223 224 225 224 227 231
338 344 344 345 346 348 345 346 348 352 356 4 14 25 39 49 55 60 67 80 90 97 104 121 137 153 163 168 174 179 183 184 184 189 191 196 198 204 205 207 210 213 214 214 216 216 218 220 222 224 227 227 227 229
346 348 348 354 358 353 357 359 359 3 12 23 29 35 42 49 58 70 77 80 88 111 131 138 142 155 168 176 178 182 188 191 193 192 193 198 201 204 207 209 210 213 217 217 216 216 218 221 222 222 225 228 229 230
356 4 21 26 35 54 52 42 38 40 46 52 51 51 53 53 55 58 67 88 113 131 148 163 167 169 175 185 190 191 193 197 199 200 198 200 204 205 207 210 212 214 217 219 220 220 219 221 223 223 224 226 229 231
46 68 71 68 71 69 61 63 65 64 62 65 62 62 63 62 60 58 60 66 73 83 128 163 177 194 199 197 200 203 209 208 207 206 206 206 207 208 209 211 213 214 218 220 221 222 222 222 225 226 226 228 229 231
78 68 66 67 72 64 67 69 73 72 75 71 71 66 65 67 68 67 66 67 68 68 71 79 98 147 193 208 213 211 207 210 213 215 214 213 213 212 213 214 216 217 219 221 224 224 225 225 225 227 229 231 231 232
57 49 64 63 60 62 70 68 70 68 72 69 72 77 78 77 72 68 66 66 66 64 64 66 70 72 77 93 183 218 217 215 217 216 216 218 218 217 217 216 217 218 220 223 225 226 227 229 229 228 230 233 234 235
77 63 69 71 69 70 72 74 82 77 76 74 76 74 69 66 68 71 70 66 62 58 55 52 52 53 57 60 64 86 175 203 212 214 216 217 218 218 220 221 221 220 221 224 225 226 228 230 232 232 232 235 237 239
124 110 84 71 76 74 79 76 79 75 71 74 72 72 69 68 67 68 68 67 64 61 59 56 52 48 48 48 49 53 62 94 185 203 212 216 219 221 222 223 222 223 224 225 227 227 227 230 232 233 234 236 237 240
169 152 121 83 79 92 91 81 78 76 66 72 59 67 66 67 63 62 61 62 66 64 61 55 55 51 47 44 48 51 52 57 65 151 205 212 217 219 221 224 226 225 224 225 227 230 229 230 232 235 237 238 240 242
201 187 212 177 106 54 83 91 92 91 89 79 66 64 57 49 49 44 47 53 56 56 65 64 51 49 49 46 47 45 48 52 55 58 72 133 203 220 225 228 229 229 229 230 229 230 232 232 233 235 237 239 242 244
222 233 232 263 254 250 28 360 326 100 102 83 56 37 34 41 37 31 30 32 39 49 50 59 59 48 44 39 40 52 47 45 44 45 49 50 50 51 272 235 235 234 232 230 230 230 231 233 234 235 239 241 242 243
222 238 246 244 273 305 264 313 322 315 293 140 5 353 358 3 20 21 16 18 23 19 27 38 50 58 51 47 49 50 47 45 54 53 46 46 45 41 37 32 12 258 239 237 237 234 232 232 233 235 237 240 242 243
240 239 248 272 265 265 273 282 297 308 314 300 269 315 307 317 321 333 351 15 11 5 3 6 17 21 26 39 40 38 34 29 34 54 48 32 26 11 14 23 27 36 29 322 256 242 238 237 237 238 239 241 243 245
233 244 251 257 265 271 274 279 282 279 284 292 297 300 300 311 293 291 287 268 297 316 318 328 330 328 329 328 342 298 320 345 7 23 7 334 348 350 346 341 342 349 326 307 316 292 261 248 244 242 243 244 245 247
237 243 247 254 262 266 266 270 273 275 288 290 286 287 292 292 296 296 292 279 273 279 278 280 290 297 298 301 304 301 303 296 298 299 300 303 298 293 300 293 290 291 291 287 283 280 280 276 267 258 253 250 250 251
249 255 261 265 270 275 276 272 275 279 281 284 289 290 290 289 290 291 292 291 289 281 273 270 265 263 268 268 270 274 285 288 289 287 286 278 276 278 282 285 286 286 281 274 269 268 270 270 270 266 260 257 256 253
270 275 279 280 279 281 282 283 286 290 291 291 293 296 297 297 300 305 302 298 296 295 292 288 282 278 276 278 280 277 277 282 284 283 285 284 286 287 281 281 283 281 277 274 272 271 272 270 265 260 258 258 256 251
285 293 302 316 315 306 303 302 308 308 310 311 307 305 304 302 305 305 311 317 311 301 313 327 333 337 342 353 358 343 358 14 1 337 326 326 331 331 330 324 319 314 307 301 291 281 273 266 264 264 264 262 255 249
Height
10726 10720 10712 10704 10696 10686 10674 10662 10651 10637 10623 10609 10594 10583 10574 10566 10558 10548 10541 10538 10538 10543 10540 10544 10551 10560 10570 10578 10589 10607 10624 10638 10664 10687 10708 10721 10735 10748 10758 10771 10779 10789 10798 10808 10813 10821 10823 10830 10832 10836 10837 10841 10843 10846
10710 10702 10695 10687 10677 10666 10654 10641 10628 10615 10599 10582 10570 10558 10548 10538 10528 10520 10510 10508 10508 10513 10512 10515 10524 10533 10544 10554 10566 10581 10594 10619 10635 10671 10683 10690 10711 10730 10746 10758 10769 10777 10788 10795 10802 10805 10813 10818 10824 10825 10830 10833 10836 10838
10694 10685 10678 10669 10659 10646 10634 10621 10607 10590 10573 10558 10546 10532 10520 10508 10498 10490 10482 10478 10480 10484 10484 10488 10495 10506 10519 10531 10543 10558 10569 10586 10611 10639 10665 10685 10711 10724 10743 10753 10760 10767 10775 10783 10790 10801 10802 10809 10813 10819 10821 10825 10829 10831
10677 10670 10660 10651 10641 10628 10614 10602 10585 10569 10550 10536 10522 10507 10493 10482 10471 10463 10456 10454 10455 10458 10459 10462 10474 10482 10495 10508 10522 10535 10546 10566 10595 10620 10643 10666 10688 10701 10722 10736 10743 10753 10763 10773 10779 10790 10793 10796 10806 10810 10812 10816 10822 10825
10663 10654 10644 10635 10624 10610 10597 10581 10565 10545 10530 10515 10499 10484 10471 10460 10450 10443 10438 10435 10436 10438 10440 10446 10455 10463 10476 10489 10503 10514 10529 10548 10571 10590 10618 10645 10670 10702 10716 10737 10738 10748 10755 10760 10767 10775 10782 10791 10795 10802 10805 10809 10814 10817
10648 10640 10630 10620 10608 10594 10578 10561 10543 10527 10511 10493 10479 10465 10453 10443 10435 10428 10424 10422 10422 10422 10425 10431 10440 10448 10458 10467 10481 10494 10511 10530 10549 10570 10598 10631 10654 10684 10677 10698 10722 10728 10735 10741 10766 10772 10774 10776 10786 10794 10797 10802 10805 10808
10636 10627 10616 10606 10591 10576 10560 10542 10526 10510 10492 10476 10462 10450 10440 10431 10423 10418 10415 10412 10411 10412 10415 10420 10426 10434 10443 10452 10465 10480 10497 10515 10533 10554 10582 10607 10629 10651 10667 10689 10699 10705 10725 10738 10754 10756 10762 10770 10780 10784 10788 10793 10798 10800
10624 10614 10604 10591 10576 10558 10542 10527 10510 10492 10475 10462 10450 10439 10430 10422 10415 10411 10408 10406 10405 10406 10408 10413 10418 10424 10432 10441 10454 10467 10484 10501 10522 10544 10561 10586 10610 10632 10652 10667 10681 10710 10719 10726 10736 10745 10755 10761 10769 10777 10781 10785 10790 10793
10613 10602 10589 10576 10560 10543 10528 10512 10495 10478 10464 10452 10441 10431 10423 10416 10410 10406 10403 10402 10401 10402 10405 10408 10413 10420 10428 10436 10446 10459 10473 10491 10507 10529 10548 10568 10594 10612 10637 10651 10673 10689 10700 10714 10731 10742 10748 10751 10760 10767 10772 10777 10782 10786
10602 10590 10577 10562 10545 10531 10517 10501 10485 10471 10457 10445 10435 10426 10419 10413 10408 10404 10401 10400 10399 10401 10403 10408 10411 10417 10425 10429 10440 10453 10467 10481 10502 10522 10532 10559 10588 10609 10627 10646 10663 10675 10689 10707 10718 10726 10734 10742 10750 10757 10763 10769 10773 10778
10590 10578 10564 10549 10534 10521 10507 10494 10482 10468 10455 10444 10434 10426 10419 10414 10408 10404 10403 10401 10401 10402 10404 10406 10411 10416 10424 10429 10441 10451 10462 10475 10490 10511 10533 10556 10578 10598 10617 10637 10650 10662 10680 10696 10708 10716 10724 10731 10739 10747 10754 10761 10766 10771
10579 10566 10552 10538 10525 10513 10501 10491 10479 10467 10456 10447 10437 10429 10422 10416 10410 10408 10406 10405 10405 10406 10407 10409 10412 10417 10424 10434 10442 10451 10463 10476 10490 10511 10530 10551 10568 10584 10604 10621 10636 10653 10670 10683 10695 10705 10713 10721 10729 10737 10745 10753 10758 10764
10568 10554 10541 10530 10519 10508 10499 10490 10480 10470 10461 10452 10443 10435 10428 10422 10417 10414 10412 10411 10411 10412 10413 10415 10418 10422 10428 10437 10446 10453 10462 10477 10492 10509 10526 10542 10566 10585 10595 10609 10627 10643 10657 10674 10687 10696 10704 10711 10721 10728 10736 10745 10753 10758
10558 10546 10536 10525 10515 10506 10499 10490 10481 10472 10465 10457 10449 10441 10435 10430 10425 10421 10420 10419 10419 10420 10421 10423 10426 10429 10434 10439 10447 10457 10468 10482 10497 10509 10526 10548 10565 10578 10590 10606 10621 10635 10648 10662 10675 10685 10693 10702 10710 10718 10726 10736 10743 10747
10551 10542 10533 10523 10513 10505 10497 10489 10481 10473 10465 10459 10453 10447 10442 10438 10434 10431 10429 10428 10428 10428 10429 10432 10434 10438 10441 10448 10454 10464 10474 10486 10499 10512 10530 10546 10560 10571 10586 10600 10613 10626 10638 10651 10663 10673 10682 10691 10698 10706 10715 10724 10731 10736
10548 10540 10531 10522 10513 10505 10497 10489 10480 10473 10466 10459 10454 10450 10446 10443 10442 10440 10439 10437 10437 10437 10439 10440 10442 10446 10451 10456 10463 10471 10480 10490 10502 10516 10528 10542 10553 10564 10576 10589 10602 10614 10627 10639 10651 10661 10670 10679 10688 10696 10703 10711 10718 10725
10548 10539 10531 10521 10513 10506 10498 10489 10481 10474 10467 10462 10457 10453 10450 10448 10446 10445 10445 10445 10445 10445 10446 10447 10450 10453 10458 10464 10471 10478 10486 10492 10500 10509 10521 10530 10539 10550 10563 10576 10590 10602 10613 10625 10636 10647 10657 10666 10675 10684 10691 10698 10706 10713
10549 10541 10532 10524 10517 10510 10501 10493 10484 10478 10472 10467 10463 10459 10457 10454 10451 10450 10449 10449 10449 10450 10451 10454 10456 10459 10462 10466 10469 10474 10478 10486 10496 10503 10511 10518 10530 10541 10553 10566 10578 10590 10601 10612 10624 10634 10644 10653 10662 10671 10679 10685 10693 10699
10553 10547 10540 10534 10527 10519 10513 10506 10499 10494 10487 10481 10474 10470 10466 10463 10460 10457 10455 10454 10454 10454 10455 10457 10459 10463 10467 10470 10474 10479 10484 10489 10494 10500 10510 10518 10526 10535 10545 10557 10568 10579 10589 10599 10610 10621 10631 10641 10650 10658 10666 10673 10680 10686
10558 10553 10548 10542 10536 10530 10524 10518 10512 10505 10499 10494 10491 10486 10483 10477 10472 10468 10466 10463 10461 10461 10461 10462 10463 10465 10467 10470 10473 10477 10481 10485 10490 10496 10504 10511 10518 10528 10539 10549 10559 10570 10580 10589 10598 10609 10619 10627 10636 10644 10652 10658 10666 10672
10562 10558 10554 10550 10544 10540 10535 10530 10525 10520 10515 10510 10505 10501 10495 10491 10487 10484 10481 10477 10475 10472 10471 10470 10468 10468 10469 10470 10472 10474 10477 10481 10486 10490 10497 10503 10512 10520 10528 10538 10548 10559 10568 10578 10587 10597 10604 10612 10621 10629 10637 10644 10651 10658
10565 10562 10558 10555 10552 10548 10545 10542 10536 10531 10526 10522 10518 10515 10511 10508 10503 10497 10492 10489 10487 10485 10483 10482 10479 10477 10475 10473 10472 10473 10474 10477 10480 10484 10489 10495 10502 10511 10520 10529 10537 10546 10555 10563 10571 10580 10589 10597 10606 10613 10622 10629 10635 10641
10566 10564 10562 10559 10557 10555 10552 10549 10546 10542 10538 10534 10530 10526 10522 10518 10515 10510 10506 10502 10498 10496 10494 10493 10491 10489 10486 10483 10480 10477 10476 10477 10479 10483 10487 10491 10496 10501 10508 10514 10522 10533 10542 10550 10557 10566 10575 10582 10589 10597 10605 10612 10619 10625
10567 10566 10564 10562 10561 10559 10557 10554 10551 10549 10546 10544 10540 10537 10533 10529 10525 10522 10519 10515 10510 10507 10504 10502 10499 10497 10496 10494 10491 10487 10483 10481 10482 10482 10485 10487 10490 10494 10498 10502 10507 10514 10521 10529 10539 10548 10559 10567 10575 10581 10589 10596 10602 10609
10566 10566 10566 10564 10564 10562 10561 10558 10555 10553 10551 10549 10547 10544 10540 10537 10533 10530 10528 10525 10521 10519 10513 10508 10508 10507 10506 10504 10503 10499 10495 10493 10490 10488 10488 10489 10490 10493 10494 10497 10501 10506 10512 10520 10528 10536 10544 10551 10558 10564 10572 10579 10586 10592
10565 10566 10566 10565 10564 10563 10562 10560 10558 10555 10554 10551 10548 10546 10544 10541 10538 10535 10533 10531 10529 10527 10523 10516 10510 10513 10512 10512 10512 10508 10505 10503 10501 10498 10497 10496 10495 10495 10495 10496 10498 10500 10504 10508 10513 10519 10526 10535 10544 10552 10559 10563 10568 10574
10564 10565 10565 10565 10564 10562 10561 10560 10559 10557 10556 10552 10549 10548 10546 10544 10541 10538 10536 10534 10531 10528 10526 10525 10523 10522 10521 10520 10519 10517 10514 10512 10510 10507 10506 10504 10503 10502 10501 10499 10499 10499 10500 10503 10506 10510 10515 10521 10527 10533 10538 10542 10548 10554
10562 10562 10562 10562 10561 10560 10560 10559 10558 10556 10554 10553 10550 10548 10546 10545 10543 10541 10539 10538 10534 10532 10530 10529 10527 10527 10526 10525 10523 10522 10521 10519 10517 10515 10513 10510 10508 10508 10507 10506 10504 10502 10502 10503 10504 10506 10508 10511 10515 10518 10521 10524 10527 10532
10559 10560 10560 10559 10558 10557 10557 10556 10554 10553 10551 10550 10548 10546 10545 10543 10541 10539 10537 10535 10533 10532 10531 10529 10528 10526 10526 10524 10523 10523 10522 10520 10519 10517 10515 10513 10512 10511 10510 10508 10507 10505 10504 10505 10505 10504 10504 10504 10506 10506 10507 10509 10511 10514
10554 10555 10555 10554 10554 10553 10552 10550 10549 10548 10546 10545 10543 10541 10539 10538 10536 10534 10533 10532 10530 10529 10527 10526 10524 10523 10522 10520 10519 10518 10518 10517 10516 10515 10513 10512 10511 10509 10507 10507 10506 10505 10504 10504 10503 10502 10500 10499 10497 10496 10495 10495 10495 10496
10550 10550 10550 10549 10548 10547 10545 10544 10543 10542 10540 10537 10535 10534 10531 10528 10526 10524 10523 10520 10518 10517 10516 10515 10515 10514 10513 10512 10512 10511 10511 10509 10508 10507 10505 10504 10502 10501 10500 10498 10497 10496 10495 10494 10493 10492 10491 10490 10488 10487 10484 10483 10482 10480
10546 10546 10545 10543 10541 10539 10536 10534 10534 10532 10531 10528 10526 10524 10522 10519 10516 10514 10511 10508 10506 10504 10504 10503 10502 10501 10501 10500 10499 10499 10500 10500 10499 10498 10497 10495 10495 10492 10490 10487 10486 10484 10483 10480 10478 10476 10473 10472 10469 10468 10467 10466 10464 10463
10540 10538 10537 10536 10534 10532 10532 10530 10528 10526 10524 10522 10519 10518 10516 10513 10510 10507 10504 10503 10501 10500 10499 10497 10496 10495 10494 10493 10492 10493 10494 10494 10493 10492 10489 10486 10484 10481 10479 10476 10474 10471 10468 10465 10462 10458 10456 10453 10445 10441 10440 10439 10439 10438